When you browse on this site, cookies collect data to enhance your experience and personalize the content and advertising you see.
Visit our Privacy Policy to learn more. By continuing to use the site, you agree to this use of cookies and data.
  • In Latvia
  • List of Countries
  • For 7 days
  • Water Temperature
  • Satellite Maps
  • Weather Map
  • Weather Widgets
  • user-avatar
    Login

    Hourly Weather Qala i Naw

    Today, 14 December, Friday

    Time Temperature Precipitation Wind Pressure Humidity
    00:00 +10°C° 0 mm 3 mps 683 mmHg 27%
    01:00 +10°C° 0 mm 3 mps 683 mmHg 26%
    02:00 +10°C° 0 mm 3 mps 683 mmHg 26%
    03:00 +10°C° 0 mm 3 mps 683 mmHg 26%
    04:00 +9°C° 0 mm 3 mps 683 mmHg 26%
    05:00 +9°C° 0 mm 3 mps 683 mmHg 26%
    06:00 +9°C° 0 mm 3 mps 684 mmHg 26%
    07:00 +9°C° 0 mm 3 mps 684 mmHg 25%
    08:00 +11°C° 0 mm 3 mps 684 mmHg 22%
    09:00 +14°C° 0 mm 2 mps 685 mmHg 20%
    10:00 +16°C° 0 mm 1 mps 686 mmHg 17%
    11:00 +17°C° 0 mm 2 mps 686 mmHg 16%
    12:00 +18°C° 0 mm 2 mps 686 mmHg 15%
    13:00 +18°C° 0 mm 2 mps 686 mmHg 15%
    14:00 +17°C° 0 mm 3 mps 686 mmHg 18%
    15:00 +16°C° 0 mm 3 mps 686 mmHg 22%
    16:00 +14°C° 0 mm 3 mps 686 mmHg 26%
    17:00 +14°C° 0 mm 2 mps 686 mmHg 31%
    18:00 +12°C° 0 mm 2 mps 686 mmHg 36%
    19:00 +11°C° 0 mm 1 mps 686 mmHg 41%
    20:00 +10°C° 0 mm 1 mps 686 mmHg 42%
    21:00 +10°C° 0 mm 1 mps 686 mmHg 43%
    22:00 +9°C° 0 mm 1 mps 686 mmHg 44%
    23:00 +9°C° 0 mm 1 mps 685 mmHg 44%

    Tomorrow, 15 December, Saturday

    Time Temperature Precipitation Wind Pressure Humidity
    00:00 +9°C° 0 mm 1 mps 685 mmHg 44%
    01:00 +8°C° 0 mm 1 mps 685 mmHg 44%
    02:00 +8°C° 0 mm 1 mps 685 mmHg 43%
    03:00 +7°C° 0 mm 0 mps 684 mmHg 42%
    04:00 +7°C° 0 mm 0 mps 684 mmHg 40%
    05:00 +8°C° 0 mm 1 mps 684 mmHg 38%
    06:00 +7°C° 0 mm 1 mps 684 mmHg 36%
    07:00 +7°C° 0 mm 1 mps 684 mmHg 34%
    08:00 +10°C° 0 mm 1 mps 685 mmHg 29%
    09:00 +12°C° 0 mm 1 mps 685 mmHg 24%
    10:00 +15°C° 0 mm 1 mps 686 mmHg 19%
    11:00 +15°C° 0 mm 1 mps 686 mmHg 18%
    12:00 +16°C° 0 mm 1 mps 686 mmHg 17%
    13:00 +17°C° 0 mm 2 mps 685 mmHg 15%
    14:00 +16°C° 0 mm 2 mps 685 mmHg 18%
    15:00 +16°C° 0 mm 2 mps 686 mmHg 21%
    16:00 +15°C° 0 mm 2 mps 686 mmHg 23%
    17:00 +13°C° 0 mm 2 mps 686 mmHg 27%
    18:00 +12°C° 0 mm 1 mps 686 mmHg 31%
    19:00 +11°C° 0 mm 1 mps 686 mmHg 35%
    20:00 +10°C° 0 mm 1 mps 687 mmHg 40%
    21:00 +9°C° 0 mm 1 mps 687 mmHg 45%
    22:00 +8°C° 0 mm 2 mps 687 mmHg 50%
    23:00 +8°C° 0 mm 1 mps 687 mmHg 54%

    Day after tomorrow, 16 December, Sunday

    Time Temperature Precipitation Wind Pressure Humidity
    00:00 +8°C° 0 mm 1 mps 687 mmHg 58%
    01:00 +7°C° 0 mm 1 mps 687 mmHg 62%
    02:00 +7°C° 0 mm 1 mps 687 mmHg 62%
    03:00 +6°C° 0 mm 1 mps 687 mmHg 63%
    04:00 +6°C° 0 mm 1 mps 686 mmHg 63%
    05:00 +6°C° 0 mm 1 mps 686 mmHg 62%
    06:00 +6°C° 0 mm 1 mps 687 mmHg 61%
    07:00 +6°C° 0 mm 1 mps 687 mmHg 60%
    08:00 +7°C° 0 mm 1 mps 687 mmHg 53%
    09:00 +9°C° 0 mm 1 mps 687 mmHg 45%
    10:00 +11°C° 0 mm 1 mps 688 mmHg 37%
    11:00 +12°C° 0 mm 1 mps 687 mmHg 34%
    12:00 +13°C° 0 mm 2 mps 687 mmHg 31%
    13:00 +14°C° 0 mm 2 mps 686 mmHg 28%
    14:00 +14°C° 0 mm 2 mps 686 mmHg 30%
    15:00 +13°C° 0 mm 2 mps 686 mmHg 31%
    16:00 +13°C° 0 mm 2 mps 686 mmHg 33%
    17:00 +12°C° 0 mm 1 mps 686 mmHg 35%
    18:00 +11°C° 0 mm 1 mps 685 mmHg 36%
    19:00 +10°C° 0 mm 1 mps 685 mmHg 38%
    20:00 +10°C° 0 mm 1 mps 685 mmHg 35%
    21:00 +10°C° 0 mm 1 mps 685 mmHg 32%
    22:00 +9°C° 0 mm 2 mps 685 mmHg 29%
    23:00 +9°C° 0 mm 2 mps 685 mmHg 28%

    17 December, Monday

    Time Temperature Precipitation Wind Pressure Humidity
    00:00 +9°C° 0 mm 2 mps 685 mmHg 27%
    01:00 +9°C° 0 mm 2 mps 685 mmHg 26%
    02:00 +8°C° 0 mm 2 mps 685 mmHg 26%
    03:00 +8°C° 0 mm 2 mps 685 mmHg 26%
    04:00 +8°C° 0 mm 2 mps 685 mmHg 25%
    05:00 +9°C° 0 mm 1 mps 685 mmHg 25%
    06:00 +8°C° 0 mm 1 mps 685 mmHg 26%
    07:00 +8°C° 0 mm 1 mps 685 mmHg 26%
    08:00 +10°C° 0 mm 1 mps 686 mmHg 23%
    09:00 +12°C° 0 mm 1 mps 686 mmHg 20%
    10:00 +15°C° 0 mm 1 mps 687 mmHg 17%
    11:00 +15°C° 0 mm 1 mps 687 mmHg 17%
    12:00 +16°C° 0 mm 2 mps 686 mmHg 17%
    13:00 +16°C° 0 mm 2 mps 686 mmHg 17%
    14:00 +16°C° 0 mm 2 mps 686 mmHg 20%
    15:00 +15°C° 0 mm 2 mps 685 mmHg 23%
    16:00 +14°C° 0 mm 2 mps 685 mmHg 25%
    17:00 +13°C° 0 mm 1 mps 685 mmHg 27%
    18:00 +12°C° 0 mm 1 mps 685 mmHg 29%
    19:00 +11°C° 0 mm 1 mps 685 mmHg 31%
    20:00 +10°C° 0 mm 1 mps 684 mmHg 31%
    21:00 +10°C° 0 mm 1 mps 684 mmHg 30%
    22:00 +10°C° 0 mm 1 mps 684 mmHg 29%
    23:00 +10°C° 0 mm 1 mps 684 mmHg 28%

    18 December, Tuesday

    Time Temperature Precipitation Wind Pressure Humidity
    00:00 +10°C° 0 mm 1 mps 684 mmHg 27%
    01:00 +9°C° 0 mm 1 mps 683 mmHg 26%
    02:00 +9°C° 0 mm 1 mps 683 mmHg 26%
    03:00 +9°C° 0 mm 1 mps 683 mmHg 25%
    04:00 +9°C° 0 mm 1 mps 682 mmHg 25%
    05:00 +9°C° 0 mm 1 mps 683 mmHg 24%
    06:00 +8°C° 0 mm 2 mps 683 mmHg 22%
    07:00 +8°C° 0 mm 2 mps 683 mmHg 21%
    08:00 +11°C° 0 mm 1 mps 683 mmHg 19%
    09:00 +14°C° 0 mm 1 mps 684 mmHg 16%
    10:00 +16°C° 0 mm 1 mps 684 mmHg 13%
    11:00 +18°C° 0 mm 1 mps 684 mmHg 12%
    12:00 +18°C° 0 mm 2 mps 683 mmHg 12%
    13:00 +19°C° 0 mm 2 mps 683 mmHg 11%
    14:00 +18°C° 0 mm 2 mps 682 mmHg 13%
    15:00 +17°C° 0 mm 2 mps 682 mmHg 15%
    16:00 +16°C° 0 mm 2 mps 681 mmHg 17%
    17:00 +15°C° 0 mm 2 mps 681 mmHg 19%
    18:00 +13°C° 0 mm 1 mps 681 mmHg 20%
    19:00 +12°C° 0 mm 1 mps 681 mmHg 22%
    20:00 +11°C° 0 mm 1 mps 681 mmHg 22%
    21:00 +11°C° 0 mm 1 mps 681 mmHg 22%
    22:00 +11°C° 0 mm 1 mps 680 mmHg 22%
    23:00 +10°C° 0 mm 1 mps 680 mmHg 23%

    19 December, Wednesday

    Time Temperature Precipitation Wind Pressure Humidity
    00:00 +10°C° 0 mm 1 mps 680 mmHg 23%
    01:00 +9°C° 0 mm 1 mps 680 mmHg 23%
    02:00 +9°C° 0 mm 1 mps 680 mmHg 23%
    03:00 +10°C° 0 mm 1 mps 680 mmHg 23%
    04:00 +10°C° 0 mm 1 mps 680 mmHg 23%
    05:00 +10°C° 0.1 mm 1 mps 681 mmHg 25%
    06:00 +10°C° 0.1 mm 1 mps 681 mmHg 27%
    07:00 +10°C° 0.1 mm 1 mps 682 mmHg 29%
    08:00 +10°C° 0 mm 2 mps 683 mmHg 31%
    09:00 +10°C° 0 mm 2 mps 683 mmHg 33%
    10:00 +11°C° 0 mm 3 mps 684 mmHg 36%
    11:00 +11°C° 0 mm 3 mps 684 mmHg 38%
    12:00 +11°C° 0 mm 4 mps 684 mmHg 40%
    13:00 +11°C° 0 mm 4 mps 683 mmHg 43%
    14:00 +10°C° 0 mm 4 mps 684 mmHg 47%
    15:00 +9°C° 0 mm 3 mps 684 mmHg 51%
    16:00 +8°C° 0 mm 3 mps 684 mmHg 55%
    17:00 +8°C° 0 mm 2 mps 685 mmHg 60%
    18:00 +8°C° 0 mm 1 mps 685 mmHg 64%
    19:00 +7°C° 0 mm 1 mps 686 mmHg 69%
    20:00 +7°C° 0 mm 1 mps 686 mmHg 70%
    21:00 +7°C° 0 mm 1 mps 686 mmHg 71%
    22:00 +7°C° 0 mm 1 mps 686 mmHg 72%
    23:00 +6°C° 0 mm 1 mps 686 mmHg 73%
    Show more